| time (UTC) | temp C | wind direction | speed KPH | gust KPH | rain 1hr cm | rain 24hr cm | rain mn cm | humidity % | barometer mb |
| 20260507051817 | 8 | 230 | 14.5 | 0.0 | 0.00 | 0.00 | 0.00 | 93 | |
| 20260507042031 | 10 | 210 | 8.0 | 0.0 | 0.00 | 0.00 | 0.00 | 87 | |
| 20260507031819 | 8 | 220 | 8.0 | 0.0 | 0.00 | 0.00 | 0.00 | 93 | |
| 20260507021816 | 8 | 230 | 14.5 | 0.0 | 0.00 | 0.00 | 0.00 | 93 | |
| 20260507011918 | 11 | 250 | 11.3 | 0.0 | 0.00 | 0.00 | 0.00 | 87 | |
| 20260507001818 | 11 | 240 | 8.0 | 0.0 | 0.00 | 0.00 | 0.00 | 93 | |
| 20260506231819 | 11 | 230 | 11.3 | 0.0 | 0.00 | 0.00 | 0.00 | 93 | |
| 20260506222030 | 12 | 250 | 19.3 | 0.0 | 0.00 | 0.00 | 0.00 | 93 | |
| 20260506211818 | 12 | 290 | 11.3 | 0.0 | 0.00 | 0.00 | 0.00 | 93 | |
| 20260506201835 | 12 | 280 | 22.5 | 38.6 | 0.00 | 0.00 | 0.00 | 93 | |
| 20260506191922 | 15 | 280 | 11.3 | 0.0 | 0.00 | 0.00 | 0.00 | 77 | |
| 20260506181907 | 17 | 10 | 25.7 | 0.0 | 0.00 | 0.00 | 0.00 | 63 | |
| 20260506171822 | 17 | 10 | 19.3 | 0.0 | 0.00 | 0.00 | 0.00 | 55 | |
| 20260506162031 | 22 | 90 | 11.3 | 0.0 | 0.00 | 0.00 | 0.00 | 37 | |
| 20260506151834 | 22 | 100 | 19.3 | 0.0 | 0.00 | 0.00 | 0.00 | 37 | |
| 20260506141834 | 22 | 170 | 19.3 | 0.0 | 0.00 | 0.00 | 0.00 | 35 | |
| 20260506131835 | 22 | 150 | 14.5 | 0.0 | 0.00 | 0.00 | 0.00 | 40 | |
| 20260506121835 | 21 | 160 | 14.5 | 0.0 | 0.00 | 0.00 | 0.00 | 40 | |
| 20260506111820 | 20 | 220 | 8.0 | 0.0 | 0.00 | 0.00 | 0.00 | 49 | |
| 20260506102031 | 18 | 190 | 8.0 | 0.0 | 0.00 | 0.00 | 0.00 | 55 | |
| 20260506091820 | 17 | 0 | 8.0 | 0.0 | 0.00 | 0.00 | 0.00 | 59 | |
| 20260506081818 | 15 | 200 | 8.0 | 0.0 | 0.00 | 0.00 | 0.00 | 67 | |
| 20260506071821 | 15 | 220 | 8.0 | 0.0 | 0.00 | 0.00 | 0.00 | 77 | |
| 20260506061821 | 12 | 230 | 3.2 | 0.0 | 0.00 | 0.00 | 0.00 | 87 |